Orbital Elements at Epoch 2459200.5 (2020-Dec-17.0) TDB
Reference: JPL 37 (heliocentric ecliptic J2000)
Element | Value | Uncertainty (1-sigma) | Units |
e | .04831166997856298 | 9.3015e-09 | |
a | 2.77956195473562 | 1.096e-08 | au |
q | 2.645276674893463 | 3.0778e-08 | au |
i | 8.555126138349999 | 2.5323e-07 | deg |
node | 105.6045268831388 | 4.3781e-06 | deg |
peri | 135.879696736991 | 2.7617e-05 | deg |
M | 239.9505527719858 | 2.9684e-05 | deg |
tp | 2459764.943698287909 (2022-Jul-04.44369829) | 0.0001402 | TDB |
period | 1692.633627855884 4.63 | 1.0011e-05 2.741e-08 | d yr |
n | .212686309710167 | 1.258e-09 | deg/d |
Q | 2.913847234577777 | 1.149e-08 | au |
|
| | Orbit Determination Parameters
Additional Information
|